Gulfport, MS Weather Center

Moon Phase Calendar



Online Cameras

 


      

Current Conditions in Gulfport
5/26/2024 7:54:17 AM

81°F
Feels Like 87
Clouds
Humidity
79%
Pressure
29.85"
Wind
13.8 mph (SW)
Dew Point
74°F
UV Index
1/10 (Low)
Visibility
6 mi

Hourly Forecast

Date & Time Sun, May 26
7:00 AM
Sun, May 26
8:00 AM
Sun, May 26
9:00 AM
Sun, May 26
10:00 AM
Sun, May 26
11:00 AM
Sun, May 26
12:00 PM
Sun, May 26
1:00 PM
Sun, May 26
2:00 PM
Sun, May 26
3:00 PM
Sun, May 26
4:00 PM
Sun, May 26
5:00 PM
Sun, May 26
6:00 PM
Sun, May 26
7:00 PM
Sun, May 26
8:00 PM
Sun, May 26
9:00 PM
Sun, May 26
10:00 PM
Sun, May 26
11:00 PM
Mon, May 27
12:00 AM
Mon, May 27
1:00 AM
Mon, May 27
2:00 AM
Mon, May 27
3:00 AM
Mon, May 27
4:00 AM
Mon, May 27
5:00 AM
Mon, May 27
6:00 AM
Mon, May 27
7:00 AM
Mon, May 27
8:00 AM
Mon, May 27
9:00 AM
Mon, May 27
10:00 AM
Mon, May 27
11:00 AM
Mon, May 27
12:00 PM
Mon, May 27
1:00 PM
Mon, May 27
2:00 PM
Mon, May 27
3:00 PM
Mon, May 27
4:00 PM
Mon, May 27
5:00 PM
Mon, May 27
6:00 PM
Mon, May 27
7:00 PM
Mon, May 27
8:00 PM
Mon, May 27
9:00 PM
Mon, May 27
10:00 PM
Mon, May 27
11:00 PM
Tue, May 28
12:00 AM
Tue, May 28
1:00 AM
Tue, May 28
2:00 AM
Tue, May 28
3:00 AM
Tue, May 28
4:00 AM
Tue, May 28
5:00 AM
Tue, May 28
6:00 AM
Condition
Clouds

Clouds

Clouds

Clouds

Clouds

Clouds

Clear

Clear

Clear

Clear

Clear

Clear

Clear

Clear

Clear

Clear

Clear

Clear

Clear

Clouds

Clouds

Clouds

Clouds

Clouds

Clouds

Clouds

Clouds

Clouds

Clouds

Clouds

Clouds

Clouds

Clouds

Clouds

Clear

Clear

Clear

Clear

Clouds

Clouds

Clouds

Clouds

Clouds

Clouds

Clouds

Clouds

Clouds

Clouds
Temperature 81°F81°F81°F82°F82°F83°F84°F84°F84°F84°F84°F83°F82°F81°F81°F80°F79°F79°F79°F79°F79°F78°F78°F78°F78°F80°F82°F83°F85°F86°F85°F85°F86°F86°F85°F85°F84°F83°F82°F81°F80°F79°F79°F78°F78°F77°F77°F76°F
Feels Like 86°F87°F87°F87°F88°F89°F90°F90°F91°F91°F91°F89°F88°F86°F86°F85°F79°F79°F79°F79°F80°F80°F80°F79°F80°F85°F88°F90°F92°F93°F92°F92°F94°F94°F93°F93°F92°F90°F89°F88°F85°F79°F79°F80°F80°F79°F78°F78°F
Cloudiness 67%75%61%47%32%19%6%1%1%1%1%1%0%0%0%0%0%2%4%15%57%72%79%83%83%64%50%42%34%28%30%39%20%13%10%7%5%0%18%49%37%30%32%37%67%79%60%59%
Visibility 6 mi6 mi6 mi6 mi6 mi6 mi6 mi6 mi6 mi6 mi6 mi6 mi6 mi6 mi6 mi6 mi6 mi6 mi6 mi6 mi6 mi6 mi6 mi6 mi6 mi6 mi6 mi6 mi6 mi6 mi6 mi6 mi6 mi6 mi6 mi6 mi6 mi6 mi6 mi6 mi6 mi6 mi6 mi6 mi6 mi6 mi6 mi6 mi
Precipitation 0%0%0%0%0%0%0%0%0%0%0%0%0%0%0%0%0%0%0%0%0%0%0%0%0%0%0%0%0%0%0%0%0%0%0%0%0%0%0%0%0%0%0%0%0%0%0%0%
Humidity 80%79%78%76%74%71%69%71%71%72%72%73%75%77%80%84%85%86%87%87%88%88%89%90%89%84%79%74%70%68%70%71%70%69%71%73%75%79%80%82%85%86%86%87%88%89%90%90%
Dew Point 74°F74°F74°F73°F73°F73°F72°F73°F73°F74°F74°F74°F73°F73°F74°F75°F75°F75°F75°F75°F75°F74°F74°F74°F75°F75°F74°F74°F73°F73°F74°F74°F74°F74°F75°F75°F75°F76°F76°F75°F75°F75°F74°F74°F74°F74°F73°F73°F
Pressure 29.85"29.85"29.85"29.88"29.88"29.91"29.91"29.88"29.88"29.88"29.85"29.85"29.85"29.85"29.85"29.88"29.88"29.85"29.85"29.85"29.85"29.85"29.88"29.88"29.91"29.91"29.91"29.94"29.94"29.94"29.94"29.91"29.91"29.88"29.88"29.88"29.88"29.91"29.91"29.91"29.94"29.94"29.97"29.97"29.97"29.97"30"30"
Wind Speed 13.3 mph14.2 mph13.1 mph13 mph12.8 mph12.6 mph12.7 mph14 mph15.1 mph15.7 mph15.5 mph15.3 mph14.8 mph14.9 mph14.9 mph14.5 mph14.8 mph14.8 mph14.5 mph14 mph12.2 mph11.9 mph11.9 mph10.8 mph9 mph9.6 mph8.7 mph9.4 mph9.5 mph9.9 mph10.6 mph11.5 mph12.4 mph13.4 mph14.4 mph14.7 mph12.1 mph10.8 mph12.5 mph9.4 mph8.9 mph6.6 mph7.2 mph7.4 mph5.5 mph5.7 mph5.1 mph3.2 mph
Wind
Direction
191°
S
192°
SSW
193°
SSW
191°
S
183°
S
174°
S
168°
SSE
168°
SSE
169°
S
168°
SSE
172°
S
176°
S
181°
S
189°
S
195°
SSW
198°
SSW
201°
SSW
201°
SSW
210°
SSW
216°
SW
228°
SW
215°
SW
240°
WSW
238°
WSW
257°
WSW
241°
WSW
236°
SW
226°
SW
212°
SSW
199°
SSW
184°
S
176°
S
175°
S
175°
S
176°
S
178°
S
183°
S
192°
SSW
210°
SSW
214°
SW
230°
SW
236°
SW
233°
SW
240°
WSW
257°
WSW
287°
WNW
314°
NW
320°
NW

Daily Forecast

Date High Low Precip. Humidity
Today
May 26

Clouds
84 °F
78 °F
0%
71%
Monday
May 27

Clouds
86 °F
78 °F
0%
68%
Tuesday
May 28

Rain
85 °F
69 °F
100%
70%
Wednesday
May 29

Rain
81 °F
70 °F
100%
79%
Thursday
May 30

Rain
82 °F
72 °F
100%
68%
Friday
May 31

Clouds
84 °F
72 °F
8%
51%
Saturday
Jun 1

Clouds
84 °F
74 °F
0%
56%
Sunday
Jun 2

Rain
84 °F
75 °F
44%
65%
Monday
Jun 3

Clouds
83 °F
78 °F
0%
62%
Tuesday
Jun 4

Rain
86 °F
76 °F
100%
64%
Wednesday
Jun 5

Rain
86 °F
75 °F
100%
64%
Thursday
Jun 6

Rain
91 °F
77 °F
92%
66%
Friday
Jun 7

Rain
86 °F
78 °F
70%
63%
Saturday
Jun 8

Rain
89 °F
78 °F
92%
59%
Sunday
Jun 9

Rain
89 °F
78 °F
99%
55%
Monday
Jun 10

Rain
80 °F
74 °F
100%
90%

Temperature 8-14 Day Outlook



Precipitation 8-14 Day Outlook




Quick Links
Gulfport, MS News
Gulfport, MS Photos
Gulfport, MS Videos




About Us
Contact Us
Site Map
Search Site
Advertise With Us
   
Gulfport.CoastalTown.com
THE GULFPORT, MS WEBSITE

Copyright 2024, Coastal Town
Privacy    |    Legal